Weather in Port Adriano

Spain     39°34′17″N   2°38′48″E
temp.,
°C
wind,
m/s
gust,
m/s
humid.,
%
clouds,
%
prec.,
mm/h
press.,
hPa
HPBL,
m
23 april, fri
fri2323:00+12ne468653 0.0 1018163
02:00+10nne33875 0.0 101857
05:00+10nne33861 0.0 101848
08:00+11ne34840 0.0 1019103
11:00+17ene34540 0.0 1020886
14:00+19ssw54548 0.0 10201166
17:00+17sw326029 0.0 1019906
20:00+16s127041 0.0 1020185
24 april, sat
sat2423:00+12ne3382100 0.0 102155
02:00+11ne3485100 0.0 102161
05:00+11ne448555 0.0 102074
08:00+12ne467928 0.0 1020130
11:00+18ese455892 0.0 1020787
14:00+21se6645100 0.0 10191238
17:00+20ese7743100 0.0 1018907
20:00+16e6956100 0.0 1018388
25 april, sun
sun2523:00+14ene466870 0.0 1019157
02:00+12ne47817 0.0 1017151
05:00+14ene41076100 0.0 1015451
08:00+14ne5108075 0.8 1015345
11:00+19e9125625 0.0 1014616
14:00+22ese9104772 0.0 1013688
17:00+22ese895080 0.0 1011583
20:00+17ene712685 0.0 1010354
26 april, mon
mon2623:00+14ene713830 0.0 1010341
02:00+14ene815850 0.0 1007310
05:00+14ene6109195 0.0 1006264
08:00+14ene6109152 0.1 1005286
11:00+20sse6868100 0.0 1003706
14:00+19wsw778094 0.1 1003688
17:00+18wsw8117410 0.0 1003758
20:00+16w611814 0.0 1004592
27 april, tue
tue2723:00+14wnw48957 0.0 1006231
02:00+13nw239365 0.0 100560
05:00+13nw22925 0.0 100559
08:00+14ne22865 0.0 100576
11:00+19sw33665 0.0 1007653
14:00+20sw676312 0.0 1006703
17:00+21wsw68560 0.0 1006807
20:00+17ssw35820 0.0 1006272